contact:dominique.lefevre@mio.osupytheas.fr, maurice.libes@osupytheas.fr, didier.mallarino@osupytheas.fr
Project:EMSO http://www.emso-fr.org/EMSO-France
Depth: 2436.0 m
Title:EMSO Ligure Ouest : Data MII capteur MICROCAT
DateTime_Computer,Latitude,Longitude,Temperature,Conductivity,Pressure,DateTime_Instrument
DateTime_Computer,Latitude,Longitude,degC,S m-1,dbar,DateTime_Instrument
2022-08-12T00:01:33Z,42.805,6.029,13.3014,4.60049,2470.6,2022-8-12T02:03:22Z
2022-08-12T00:04:36Z,42.805,6.029,13.3011,4.60050,2470.577,2022-8-12T02:06:25Z
2022-08-12T00:07:40Z,42.805,6.029,13.3013,4.60049,2470.577,2022-8-12T02:09:29Z
2022-08-12T00:10:43Z,42.805,6.029,13.3014,4.60055,2470.567,2022-8-12T02:12:32Z
2022-08-12T00:13:46Z,42.805,6.029,13.3011,4.60049,2470.6,2022-8-12T02:15:35Z
2022-08-12T00:16:49Z,42.805,6.029,13.3009,4.60049,2470.614,2022-8-12T02:18:38Z
2022-08-12T00:19:52Z,42.805,6.029,13.3012,4.60049,2470.553,2022-8-12T02:21:41Z
2022-08-12T00:22:55Z,42.805,6.029,13.3008,4.60050,2470.567,2022-8-12T02:24:44Z
2022-08-12T00:25:58Z,42.805,6.029,13.3012,4.60049,2470.577,2022-8-12T02:27:47Z
2022-08-12T00:29:01Z,42.805,6.029,13.3008,4.60047,2470.591,2022-8-12T02:30:50Z
2022-08-12T00:32:05Z,42.805,6.029,13.3011,4.60046,2470.567,2022-8-12T02:33:54Z
2022-08-12T00:35:08Z,42.805,6.029,13.3012,4.60047,2470.577,2022-8-12T02:36:57Z
2022-08-12T00:38:11Z,42.805,6.029,13.3009,4.60047,2470.53,2022-8-12T02:40:00Z
2022-08-12T00:41:14Z,42.805,6.029,13.3011,4.60047,2470.577,2022-8-12T02:43:03Z
2022-08-12T00:44:17Z,42.805,6.029,13.3013,4.60049,2470.544,2022-8-12T02:46:06Z
2022-08-12T00:47:20Z,42.805,6.029,13.3006,4.60047,2470.567,2022-8-12T02:49:09Z
2022-08-12T00:50:23Z,42.805,6.029,13.3012,4.60052,2470.591,2022-8-12T02:52:12Z
2022-08-12T00:53:26Z,42.805,6.029,13.3011,4.60051,2470.567,2022-8-12T02:55:15Z
2022-08-12T00:56:30Z,42.805,6.029,13.3009,4.60049,2470.567,2022-8-12T02:58:18Z
2022-08-12T00:59:33Z,42.805,6.029,13.3014,4.60046,2470.53,2022-8-12T03:01:22Z
2022-08-12T01:02:36Z,42.805,6.029,13.3010,4.60046,2470.53,2022-8-12T03:04:25Z
2022-08-12T01:05:39Z,42.805,6.029,13.3015,4.60048,2470.53,2022-8-12T03:07:28Z
2022-08-12T01:08:42Z,42.805,6.029,13.3010,4.60046,2470.553,2022-8-12T03:10:31Z
2022-08-12T01:11:45Z,42.805,6.029,13.3009,4.60049,2470.507,2022-8-12T03:13:34Z
2022-08-12T01:14:48Z,42.805,6.029,13.3015,4.60049,2470.553,2022-8-12T03:16:37Z
2022-08-12T01:17:51Z,42.805,6.029,13.3013,4.60046,2470.567,2022-8-12T03:19:40Z
2022-08-12T01:20:55Z,42.805,6.029,13.3014,4.60049,2470.507,2022-8-12T03:22:43Z
2022-08-12T01:23:58Z,42.805,6.029,13.3009,4.60046,2470.544,2022-8-12T03:25:47Z
2022-08-12T01:27:01Z,42.805,6.029,13.3012,4.60046,2470.53,2022-8-12T03:28:50Z
2022-08-12T01:30:04Z,42.805,6.029,13.3011,4.60047,2470.53,2022-8-12T03:31:53Z
2022-08-12T01:33:07Z,42.805,6.029,13.3014,4.60051,2470.53,2022-8-12T03:34:56Z
2022-08-12T01:36:10Z,42.805,6.029,13.3014,4.60049,2470.53,2022-8-12T03:37:59Z
2022-08-12T01:39:13Z,42.805,6.029,13.3011,4.60051,2470.553,2022-8-12T03:41:02Z
2022-08-12T01:42:16Z,42.805,6.029,13.3013,4.60046,2470.52,2022-8-12T03:44:05Z
2022-08-12T01:45:19Z,42.805,6.029,13.3013,4.60049,2470.544,2022-8-12T03:47:08Z
2022-08-12T01:48:23Z,42.805,6.029,13.3012,4.60051,2470.53,2022-8-12T03:50:12Z
2022-08-12T01:51:26Z,42.805,6.029,13.3013,4.60049,2470.52,2022-8-12T03:53:15Z
2022-08-12T01:54:29Z,42.805,6.029,13.3011,4.60045,2470.52,2022-8-12T03:56:18Z
2022-08-12T01:57:32Z,42.805,6.029,13.3008,4.60046,2470.507,2022-8-12T03:59:21Z
2022-08-12T02:00:35Z,42.805,6.029,13.3010,4.60047,2470.507,2022-8-12T04:02:24Z
2022-08-12T02:03:38Z,42.805,6.029,13.3013,4.60046,2470.53,2022-8-12T04:05:27Z
2022-08-12T02:06:41Z,42.805,6.029,13.3015,4.60046,2470.507,2022-8-12T04:08:30Z
2022-08-12T02:09:44Z,42.805,6.029,13.3014,4.60046,2470.483,2022-8-12T04:11:33Z
2022-08-12T02:12:48Z,42.805,6.029,13.3009,4.60046,2470.53,2022-8-12T04:14:37Z
2022-08-12T02:15:51Z,42.805,6.029,13.3009,4.60047,2470.544,2022-8-12T04:17:40Z
2022-08-12T02:18:54Z,42.805,6.029,13.3011,4.60053,2470.507,2022-8-12T04:20:43Z
2022-08-12T02:21:57Z,42.805,6.029,13.3013,4.60049,2470.497,2022-8-12T04:23:46Z
2022-08-12T02:25:00Z,42.805,6.029,13.3012,4.60048,2470.516,2022-8-12T04:26:49Z
2022-08-12T02:28:03Z,42.805,6.029,13.3010,4.60046,2470.52,2022-8-12T04:29:52Z
2022-08-12T02:31:06Z,42.805,6.029,13.3011,4.60054,2470.483,2022-8-12T04:32:55Z
2022-08-12T02:34:09Z,42.805,6.029,13.3011,4.60046,2470.507,2022-8-12T04:35:58Z
2022-08-12T02:37:13Z,42.805,6.029,13.3015,4.60049,2470.507,2022-8-12T04:39:02Z
2022-08-12T02:40:16Z,42.805,6.029,13.3015,4.60049,2470.507,2022-8-12T04:42:05Z
2022-08-12T02:43:19Z,42.805,6.029,13.3014,4.60046,2470.483,2022-8-12T04:45:08Z
2022-08-12T02:46:22Z,42.805,6.029,13.3008,4.60052,2470.544,2022-8-12T04:48:11Z
2022-08-12T02:49:25Z,42.805,6.029,13.3010,4.60046,2470.507,2022-8-12T04:51:14Z
2022-08-12T02:52:28Z,42.805,6.029,13.3009,4.60050,2470.544,2022-8-12T04:54:17Z
2022-08-12T02:55:31Z,42.805,6.029,13.3014,4.60053,2470.52,2022-8-12T04:57:20Z
2022-08-12T02:58:34Z,42.805,6.029,13.3014,4.60051,2470.53,2022-8-12T05:00:23Z
2022-08-12T03:01:38Z,42.805,6.029,13.3011,4.60048,2470.53,2022-8-12T05:03:27Z
2022-08-12T03:04:41Z,42.805,6.029,13.3011,4.60045,2470.544,2022-8-12T05:06:30Z
2022-08-12T03:07:44Z,42.805,6.029,13.3011,4.60045,2470.53,2022-8-12T05:09:33Z
2022-08-12T03:10:47Z,42.805,6.029,13.3012,4.60046,2470.53,2022-8-12T05:12:36Z
2022-08-12T03:13:50Z,42.805,6.029,13.3012,4.60047,2470.52,2022-8-12T05:15:39Z
2022-08-12T03:16:53Z,42.805,6.029,13.3010,4.60045,2470.507,2022-8-12T05:18:42Z
2022-08-12T03:19:56Z,42.805,6.029,13.3014,4.60045,2470.53,2022-8-12T05:21:45Z
2022-08-12T03:22:59Z,42.805,6.029,13.3011,4.60045,2470.507,2022-8-12T05:24:48Z
2022-08-12T03:26:03Z,42.805,6.029,13.3009,4.60046,2470.53,2022-8-12T05:27:51Z
2022-08-12T03:29:06Z,42.805,6.029,13.3014,4.60049,2470.553,2022-8-12T05:30:55Z
2022-08-12T03:32:09Z,42.805,6.029,13.3014,4.60049,2470.53,2022-8-12T05:33:58Z
2022-08-12T03:35:12Z,42.805,6.029,13.3010,4.60050,2470.53,2022-8-12T05:37:01Z
2022-08-12T03:38:15Z,42.805,6.029,13.3017,4.60046,2470.53,2022-8-12T05:40:04Z
2022-08-12T03:41:18Z,42.805,6.029,13.3010,4.60046,2470.553,2022-8-12T05:43:07Z
2022-08-12T03:44:21Z,42.805,6.029,13.3018,4.60048,2470.53,2022-8-12T05:46:10Z
2022-08-12T03:47:24Z,42.805,6.029,13.3012,4.60046,2470.493,2022-8-12T05:49:13Z
2022-08-12T03:50:27Z,42.805,6.029,13.3013,4.60046,2470.544,2022-8-12T05:52:16Z
2022-08-12T03:53:31Z,42.805,6.029,13.3011,4.60049,2470.567,2022-8-12T05:55:20Z
2022-08-12T03:56:34Z,42.805,6.029,13.3011,4.60052,2470.53,2022-8-12T05:58:23Z
2022-08-12T03:59:37Z,42.805,6.029,13.3012,4.60050,2470.53,2022-8-12T06:01:26Z
2022-08-12T04:02:40Z,42.805,6.029,13.3011,4.60053,2470.577,2022-8-12T06:04:29Z
2022-08-12T04:05:43Z,42.805,6.029,13.3012,4.60056,2470.53,2022-8-12T06:07:32Z
2022-08-12T04:08:46Z,42.805,6.029,13.3017,4.60046,2470.544,2022-8-12T06:10:35Z
2022-08-12T04:11:49Z,42.805,6.029,13.3019,4.60047,2470.567,2022-8-12T06:13:38Z
2022-08-12T04:14:52Z,42.805,6.029,13.3016,4.60049,2470.553,2022-8-12T06:16:41Z
2022-08-12T04:17:56Z,42.805,6.029,13.3017,4.60049,2470.544,2022-8-12T06:19:45Z
2022-08-12T04:20:59Z,42.805,6.029,13.3012,4.60046,2470.553,2022-8-12T06:22:48Z
2022-08-12T04:24:02Z,42.805,6.029,13.3019,4.60047,2470.591,2022-8-12T06:25:51Z
2022-08-12T04:27:05Z,42.805,6.029,13.3009,4.60046,2470.614,2022-8-12T06:28:54Z
2022-08-12T04:30:08Z,42.805,6.029,13.3012,4.60051,2470.553,2022-8-12T06:31:57Z
2022-08-12T04:33:11Z,42.805,6.029,13.3012,4.60046,2470.577,2022-8-12T06:35:00Z
2022-08-12T04:36:14Z,42.805,6.029,13.3016,4.60049,2470.577,2022-8-12T06:38:03Z
2022-08-12T04:39:17Z,42.805,6.029,13.3011,4.60052,2470.591,2022-8-12T06:41:06Z
2022-08-12T04:42:21Z,42.805,6.029,13.3010,4.60048,2470.577,2022-8-12T06:44:09Z
2022-08-12T04:45:24Z,42.805,6.029,13.3014,4.60046,2470.591,2022-8-12T06:47:13Z
2022-08-12T04:48:27Z,42.805,6.029,13.3013,4.60048,2470.591,2022-8-12T06:50:16Z
2022-08-12T04:51:30Z,42.805,6.029,13.3013,4.60049,2470.6,2022-8-12T06:53:19Z
2022-08-12T04:54:33Z,42.805,6.029,13.3015,4.60048,2470.6,2022-8-12T06:56:22Z
2022-08-12T04:57:36Z,42.805,6.029,13.3009,4.60047,2470.577,2022-8-12T06:59:25Z
2022-08-12T05:00:39Z,42.805,6.029,13.3012,4.60050,2470.591,2022-8-12T07:02:28Z
2022-08-12T05:03:42Z,42.805,6.029,13.3014,4.60053,2470.577,2022-8-12T07:05:31Z
2022-08-12T05:06:45Z,42.805,6.029,13.3014,4.60046,2470.637,2022-8-12T07:08:34Z
2022-08-12T05:09:49Z,42.805,6.029,13.3010,4.60046,2470.637,2022-8-12T07:11:38Z
2022-08-12T05:12:52Z,42.805,6.029,13.3011,4.60050,2470.577,2022-8-12T07:14:41Z
2022-08-12T05:15:55Z,42.805,6.029,13.3011,4.60055,2470.6,2022-8-12T07:17:44Z
2022-08-12T05:18:58Z,42.805,6.029,13.3015,4.60057,2470.614,2022-8-12T07:20:47Z
2022-08-12T05:22:01Z,42.805,6.029,13.3012,4.60052,2470.614,2022-8-12T07:23:50Z
2022-08-12T05:25:04Z,42.805,6.029,13.3015,4.60049,2470.624,2022-8-12T07:26:53Z
2022-08-12T05:28:07Z,42.805,6.029,13.3010,4.60049,2470.614,2022-8-12T07:29:56Z
2022-08-12T05:31:10Z,42.805,6.029,13.3015,4.60054,2470.637,2022-8-12T07:32:59Z
2022-08-12T05:34:14Z,42.805,6.029,13.3011,4.60050,2470.624,2022-8-12T07:36:03Z
2022-08-12T05:37:17Z,42.805,6.029,13.3016,4.60050,2470.624,2022-8-12T07:39:06Z
2022-08-12T05:40:20Z,42.805,6.029,13.3016,4.60046,2470.6,2022-8-12T07:42:09Z
2022-08-12T05:43:23Z,42.805,6.029,13.3011,4.60046,2470.646,2022-8-12T07:45:12Z
2022-08-12T05:46:26Z,42.805,6.029,13.3011,4.60047,2470.591,2022-8-12T07:48:15Z
2022-08-12T05:49:29Z,42.805,6.029,13.3015,4.60051,2470.637,2022-8-12T07:51:18Z
2022-08-12T05:52:32Z,42.805,6.029,13.3011,4.60046,2470.624,2022-8-12T07:54:21Z
2022-08-12T05:55:35Z,42.805,6.029,13.3019,4.60046,2470.637,2022-8-12T07:57:24Z
2022-08-12T05:58:39Z,42.805,6.029,13.3014,4.60048,2470.661,2022-8-12T08:00:28Z
2022-08-12T06:01:42Z,42.805,6.029,13.3013,4.60048,2470.684,2022-8-12T08:03:31Z
2022-08-12T06:04:45Z,42.805,6.029,13.3012,4.60049,2470.624,2022-8-12T08:06:34Z
2022-08-12T06:07:48Z,42.805,6.029,13.3012,4.60050,2470.624,2022-8-12T08:09:37Z
2022-08-12T06:10:51Z,42.805,6.029,13.3014,4.60054,2470.661,2022-8-12T08:12:40Z
2022-08-12T06:13:54Z,42.805,6.029,13.3015,4.60052,2470.624,2022-8-12T08:15:43Z
2022-08-12T06:16:57Z,42.805,6.029,13.3008,4.60051,2470.661,2022-8-12T08:18:46Z
2022-08-12T06:20:00Z,42.805,6.029,13.3014,4.60056,2470.637,2022-8-12T08:21:49Z
2022-08-12T06:23:03Z,42.805,6.029,13.3011,4.60051,2470.661,2022-8-12T08:24:52Z
2022-08-12T06:26:07Z,42.805,6.029,13.3012,4.60053,2470.67,2022-8-12T08:27:56Z
2022-08-12T06:29:10Z,42.805,6.029,13.3009,4.60050,2470.624,2022-8-12T08:30:59Z
2022-08-12T06:32:13Z,42.805,6.029,13.3010,4.60051,2470.646,2022-8-12T08:34:02Z
2022-08-12T06:35:16Z,42.805,6.029,13.3011,4.60050,2470.661,2022-8-12T08:37:05Z
2022-08-12T06:38:19Z,42.805,6.029,13.3010,4.60050,2470.646,2022-8-12T08:40:08Z
2022-08-12T06:41:22Z,42.805,6.029,13.3007,4.60053,2470.661,2022-8-12T08:43:11Z
2022-08-12T06:44:25Z,42.805,6.029,13.3010,4.60049,2470.637,2022-8-12T08:46:14Z
2022-08-12T06:47:28Z,42.805,6.029,13.3010,4.60050,2470.646,2022-8-12T08:49:17Z
2022-08-12T06:50:32Z,42.805,6.029,13.3012,4.60051,2470.624,2022-8-12T08:52:21Z
2022-08-12T06:53:35Z,42.805,6.029,13.3013,4.60052,2470.624,2022-8-12T08:55:24Z
2022-08-12T06:56:38Z,42.805,6.029,13.3011,4.60050,2470.646,2022-8-12T08:58:27Z
2022-08-12T06:59:41Z,42.805,6.029,13.3012,4.60050,2470.624,2022-8-12T09:01:30Z
2022-08-12T07:02:44Z,42.805,6.029,13.3007,4.60049,2470.646,2022-8-12T09:04:33Z
2022-08-12T07:05:47Z,42.805,6.029,13.3004,4.60049,2470.637,2022-8-12T09:07:36Z
2022-08-12T07:08:50Z,42.805,6.029,13.3010,4.60047,2470.624,2022-8-12T09:10:39Z
2022-08-12T07:11:53Z,42.805,6.029,13.3011,4.60049,2470.624,2022-8-12T09:13:42Z
2022-08-12T07:14:57Z,42.805,6.029,13.3013,4.60049,2470.6,2022-8-12T09:16:46Z
2022-08-12T07:18:00Z,42.805,6.029,13.3011,4.60049,2470.646,2022-8-12T09:19:49Z
2022-08-12T07:21:03Z,42.805,6.029,13.3011,4.60054,2470.624,2022-8-12T09:22:52Z
2022-08-12T07:24:06Z,42.805,6.029,13.3011,4.60052,2470.684,2022-8-12T09:25:55Z
2022-08-12T07:27:09Z,42.805,6.029,13.3011,4.60052,2470.624,2022-8-12T09:28:58Z
2022-08-12T07:30:12Z,42.805,6.029,13.3012,4.60047,2470.624,2022-8-12T09:32:01Z
2022-08-12T07:33:15Z,42.805,6.029,13.3009,4.60048,2470.637,2022-8-12T09:35:04Z
2022-08-12T07:36:18Z,42.805,6.029,13.3011,4.60050,2470.661,2022-8-12T09:38:07Z
2022-08-12T07:39:22Z,42.805,6.029,13.3013,4.60051,2470.624,2022-8-12T09:41:11Z
2022-08-12T07:42:25Z,42.805,6.029,13.3009,4.60051,2470.624,2022-8-12T09:44:14Z
2022-08-12T07:45:28Z,42.805,6.029,13.3010,4.60053,2470.637,2022-8-12T09:47:17Z
2022-08-12T07:48:31Z,42.805,6.029,13.3009,4.60049,2470.637,2022-8-12T09:50:20Z
2022-08-12T07:51:34Z,42.805,6.029,13.3012,4.60054,2470.661,2022-8-12T09:53:23Z
2022-08-12T07:54:37Z,42.805,6.029,13.3009,4.60050,2470.624,2022-8-12T09:56:26Z
2022-08-12T07:57:40Z,42.805,6.029,13.3011,4.60054,2470.637,2022-8-12T09:59:29Z
2022-08-12T08:00:43Z,42.805,6.029,13.3011,4.60056,2470.6,2022-8-12T10:02:32Z
2022-08-12T08:03:46Z,42.805,6.029,13.3011,4.60051,2470.624,2022-8-12T10:05:35Z
2022-08-12T08:06:50Z,42.805,6.029,13.3015,4.60052,2470.661,2022-8-12T10:08:39Z
2022-08-12T08:09:53Z,42.805,6.029,13.3011,4.60052,2470.624,2022-8-12T10:11:42Z
2022-08-12T08:12:56Z,42.805,6.029,13.3009,4.60055,2470.661,2022-8-12T10:14:45Z
2022-08-12T08:15:59Z,42.805,6.029,13.3013,4.60057,2470.614,2022-8-12T10:17:48Z
2022-08-12T08:19:02Z,42.805,6.029,13.3011,4.60049,2470.661,2022-8-12T10:20:51Z
2022-08-12T08:22:05Z,42.805,6.029,13.3010,4.60058,2470.6,2022-8-12T10:23:54Z
2022-08-12T08:25:08Z,42.805,6.029,13.3011,4.60054,2470.624,2022-8-12T10:26:57Z
2022-08-12T08:28:12Z,42.805,6.029,13.3014,4.60052,2470.624,2022-8-12T10:30:01Z
2022-08-12T08:31:15Z,42.805,6.029,13.3011,4.60049,2470.614,2022-8-12T10:33:04Z
2022-08-12T08:34:18Z,42.805,6.029,13.3011,4.60052,2470.646,2022-8-12T10:36:07Z
2022-08-12T08:37:21Z,42.805,6.029,13.3010,4.60054,2470.6,2022-8-12T10:39:10Z
2022-08-12T08:40:24Z,42.805,6.029,13.3012,4.60051,2470.6,2022-8-12T10:42:13Z
2022-08-12T08:43:27Z,42.805,6.029,13.3008,4.60050,2470.6,2022-8-12T10:45:16Z
2022-08-12T08:46:30Z,42.805,6.029,13.3013,4.60051,2470.6,2022-8-12T10:48:19Z
2022-08-12T08:49:33Z,42.805,6.029,13.3011,4.60050,2470.577,2022-8-12T10:51:22Z
2022-08-12T08:52:37Z,42.805,6.029,13.3010,4.60055,2470.614,2022-8-12T10:54:26Z
2022-08-12T08:55:40Z,42.805,6.029,13.3011,4.60053,2470.577,2022-8-12T10:57:29Z
2022-08-12T08:58:43Z,42.805,6.029,13.3011,4.60052,2470.614,2022-8-12T11:00:32Z
2022-08-12T09:01:46Z,42.805,6.029,13.3011,4.60052,2470.6,2022-8-12T11:03:35Z
2022-08-12T09:04:49Z,42.805,6.029,13.3012,4.60054,2470.614,2022-8-12T11:06:38Z
2022-08-12T09:07:52Z,42.805,6.029,13.3011,4.60051,2470.614,2022-8-12T11:09:41Z
2022-08-12T09:10:55Z,42.805,6.029,13.3011,4.60049,2470.577,2022-8-12T11:12:44Z
2022-08-12T09:13:58Z,42.805,6.029,13.3007,4.60049,2470.624,2022-8-12T11:15:47Z
2022-08-12T09:17:02Z,42.805,6.029,13.3013,4.60049,2470.624,2022-8-12T11:18:51Z
2022-08-12T09:20:05Z,42.805,6.029,13.3012,4.60049,2470.577,2022-8-12T11:21:54Z
2022-08-12T09:23:08Z,42.805,6.029,13.3010,4.60053,2470.6,2022-8-12T11:24:57Z
2022-08-12T09:26:11Z,42.805,6.029,13.3014,4.60051,2470.577,2022-8-12T11:28:00Z
2022-08-12T09:29:14Z,42.805,6.029,13.3013,4.60050,2470.577,2022-8-12T11:31:03Z
2022-08-12T09:32:17Z,42.805,6.029,13.3010,4.60052,2470.577,2022-8-12T11:34:06Z
2022-08-12T09:35:20Z,42.805,6.029,13.3008,4.60049,2470.591,2022-8-12T11:37:09Z
2022-08-12T09:38:23Z,42.805,6.029,13.3013,4.60049,2470.553,2022-8-12T11:40:12Z
2022-08-12T09:41:27Z,42.805,6.029,13.3012,4.60049,2470.591,2022-8-12T11:43:16Z
2022-08-12T09:44:30Z,42.805,6.029,13.3009,4.60049,2470.539,2022-8-12T11:46:19Z
2022-08-12T09:47:33Z,42.805,6.029,13.3011,4.60050,2470.553,2022-8-12T11:49:22Z
2022-08-12T09:50:36Z,42.805,6.029,13.3011,4.60049,2470.567,2022-8-12T11:52:25Z
2022-08-12T09:53:39Z,42.805,6.029,13.3013,4.60052,2470.553,2022-8-12T11:55:28Z
2022-08-12T09:56:42Z,42.805,6.029,13.3010,4.60051,2470.567,2022-8-12T11:58:31Z
2022-08-12T09:59:45Z,42.805,6.029,13.3012,4.60050,2470.53,2022-8-12T12:01:34Z
2022-08-12T10:02:48Z,42.805,6.029,13.3012,4.60046,2470.53,2022-8-12T12:04:37Z
2022-08-12T10:05:52Z,42.805,6.029,13.3009,4.60047,2470.516,2022-8-12T12:07:41Z
2022-08-12T10:08:55Z,42.805,6.029,13.3012,4.60052,2470.53,2022-8-12T12:10:44Z
2022-08-12T10:11:58Z,42.805,6.029,13.3009,4.60052,2470.53,2022-8-12T12:13:47Z
2022-08-12T10:15:01Z,42.805,6.029,13.3011,4.60051,2470.567,2022-8-12T12:16:50Z
2022-08-12T10:18:04Z,42.805,6.029,13.3013,4.60049,2470.507,2022-8-12T12:19:53Z
2022-08-12T10:21:07Z,42.805,6.029,13.3012,4.60050,2470.53,2022-8-12T12:22:56Z
2022-08-12T10:24:10Z,42.805,6.029,13.3013,4.60049,2470.52,2022-8-12T12:25:59Z
2022-08-12T10:27:13Z,42.805,6.029,13.3011,4.60051,2470.507,2022-8-12T12:29:02Z
2022-08-12T10:30:17Z,42.805,6.029,13.3010,4.60052,2470.53,2022-8-12T12:32:06Z
2022-08-12T10:33:20Z,42.805,6.029,13.3009,4.60049,2470.52,2022-8-12T12:35:09Z
2022-08-12T10:36:23Z,42.805,6.029,13.3012,4.60049,2470.493,2022-8-12T12:38:12Z
2022-08-12T10:39:26Z,42.805,6.029,13.3010,4.60047,2470.507,2022-8-12T12:41:15Z
2022-08-12T10:42:29Z,42.805,6.029,13.3010,4.60050,2470.483,2022-8-12T12:44:18Z
2022-08-12T10:45:32Z,42.805,6.029,13.3009,4.60052,2470.507,2022-8-12T12:47:21Z
2022-08-12T10:48:35Z,42.805,6.029,13.3006,4.60047,2470.483,2022-8-12T12:50:24Z
2022-08-12T10:51:38Z,42.805,6.029,13.3010,4.60047,2470.507,2022-8-12T12:53:27Z
2022-08-12T10:54:42Z,42.805,6.029,13.3011,4.60046,2470.497,2022-8-12T12:56:31Z
2022-08-12T10:57:45Z,42.805,6.029,13.3012,4.60047,2470.46,2022-8-12T12:59:34Z
2022-08-12T11:00:48Z,42.805,6.029,13.3009,4.60046,2470.497,2022-8-12T13:02:37Z
2022-08-12T11:03:51Z,42.805,6.029,13.3011,4.60048,2470.497,2022-8-12T13:05:40Z
2022-08-12T11:06:54Z,42.805,6.029,13.3011,4.60047,2470.497,2022-8-12T13:08:43Z
2022-08-12T11:09:57Z,42.805,6.029,13.3011,4.60049,2470.483,2022-8-12T13:11:46Z
2022-08-12T11:13:00Z,42.805,6.029,13.3011,4.60046,2470.483,2022-8-12T13:14:49Z
2022-08-12T11:16:03Z,42.805,6.029,13.3009,4.60046,2470.46,2022-8-12T13:17:52Z
2022-08-12T11:19:07Z,42.805,6.029,13.3009,4.60049,2470.46,2022-8-12T13:20:56Z
2022-08-12T11:22:10Z,42.805,6.029,13.3012,4.60049,2470.497,2022-8-12T13:23:59Z
2022-08-12T11:25:13Z,42.805,6.029,13.3006,4.60049,2470.483,2022-8-12T13:27:02Z
2022-08-12T11:28:16Z,42.805,6.029,13.3006,4.60049,2470.497,2022-8-12T13:30:05Z
2022-08-12T11:31:19Z,42.805,6.029,13.3009,4.60049,2470.52,2022-8-12T13:33:08Z
2022-08-12T11:34:22Z,42.805,6.029,13.3009,4.60046,2470.497,2022-8-12T13:36:11Z
2022-08-12T11:37:25Z,42.805,6.029,13.3011,4.60046,2470.474,2022-8-12T13:39:14Z
2022-08-12T11:40:28Z,42.805,6.029,13.3013,4.60046,2470.483,2022-8-12T13:42:17Z
2022-08-12T11:43:32Z,42.805,6.029,13.3009,4.60049,2470.483,2022-8-12T13:45:21Z
2022-08-12T11:46:35Z,42.805,6.029,13.3010,4.60052,2470.437,2022-8-12T13:48:24Z
2022-08-12T11:49:38Z,42.805,6.029,13.3009,4.60046,2470.474,2022-8-12T13:51:27Z
2022-08-12T11:52:41Z,42.805,6.029,13.3013,4.60048,2470.474,2022-8-12T13:54:30Z
2022-08-12T11:55:44Z,42.805,6.029,13.3009,4.60054,2470.46,2022-8-12T13:57:33Z
2022-08-12T11:58:47Z,42.805,6.029,13.3010,4.60047,2470.483,2022-8-12T14:00:36Z
2022-08-12T12:01:50Z,42.805,6.029,13.3012,4.60049,2470.46,2022-8-12T14:03:39Z
2022-08-12T12:04:54Z,42.805,6.029,13.3011,4.60047,2470.483,2022-8-12T14:06:43Z
2022-08-12T12:07:57Z,42.805,6.029,13.3012,4.60053,2470.45,2022-8-12T14:09:46Z
2022-08-12T12:11:00Z,42.805,6.029,13.3008,4.60045,2470.474,2022-8-12T14:12:49Z
2022-08-12T12:14:03Z,42.805,6.029,13.3010,4.60047,2470.46,2022-8-12T14:15:52Z
2022-08-12T12:17:06Z,42.805,6.029,13.3011,4.60049,2470.45,2022-8-12T14:18:55Z
2022-08-12T12:20:09Z,42.805,6.029,13.3010,4.60047,2470.437,2022-8-12T14:21:58Z
2022-08-12T12:23:12Z,42.805,6.029,13.3009,4.60049,2470.413,2022-8-12T14:25:01Z
2022-08-12T12:26:15Z,42.805,6.029,13.3008,4.60046,2470.45,2022-8-12T14:28:04Z
2022-08-12T12:29:19Z,42.805,6.029,13.3010,4.60046,2470.437,2022-8-12T14:31:08Z
2022-08-12T12:32:22Z,42.805,6.029,13.3011,4.60052,2470.474,2022-8-12T14:34:11Z
2022-08-12T12:35:25Z,42.805,6.029,13.3011,4.60049,2470.437,2022-8-12T14:37:14Z
2022-08-12T12:38:28Z,42.805,6.029,13.3011,4.60049,2470.446,2022-8-12T14:40:17Z
2022-08-12T12:41:31Z,42.805,6.029,13.3011,4.60046,2470.474,2022-8-12T14:43:20Z
2022-08-12T12:44:34Z,42.805,6.029,13.3011,4.60046,2470.427,2022-8-12T14:46:23Z
2022-08-12T12:47:37Z,42.805,6.029,13.3007,4.60047,2470.45,2022-8-12T14:49:26Z
2022-08-12T12:50:40Z,42.805,6.029,13.3011,4.60047,2470.46,2022-8-12T14:52:29Z
2022-08-12T12:53:44Z,42.805,6.029,13.3013,4.60047,2470.437,2022-8-12T14:55:33Z
2022-08-12T12:56:47Z,42.805,6.029,13.3010,4.60047,2470.427,2022-8-12T14:58:36Z
2022-08-12T12:59:50Z,42.805,6.029,13.3011,4.60046,2470.437,2022-8-12T15:01:39Z
2022-08-12T13:02:53Z,42.805,6.029,13.3009,4.60046,2470.45,2022-8-12T15:04:42Z
2022-08-12T13:05:56Z,42.805,6.029,13.3010,4.60049,2470.46,2022-8-12T15:07:45Z
2022-08-12T13:08:59Z,42.805,6.029,13.3010,4.60046,2470.413,2022-8-12T15:10:48Z
2022-08-12T13:12:02Z,42.805,6.029,13.3011,4.60049,2470.413,2022-8-12T15:13:51Z
2022-08-12T13:15:05Z,42.805,6.029,13.3010,4.60048,2470.46,2022-8-12T15:16:54Z
2022-08-12T13:18:09Z,42.805,6.029,13.3008,4.60050,2470.404,2022-8-12T15:19:58Z
2022-08-12T13:21:12Z,42.805,6.029,13.3014,4.60048,2470.413,2022-8-12T15:23:01Z
2022-08-12T13:24:15Z,42.805,6.029,13.3010,4.60049,2470.413,2022-8-12T15:26:04Z
2022-08-12T13:27:18Z,42.805,6.029,13.3011,4.60050,2470.427,2022-8-12T15:29:07Z
2022-08-12T13:30:21Z,42.805,6.029,13.3009,4.60049,2470.427,2022-8-12T15:32:10Z
2022-08-12T13:33:24Z,42.805,6.029,13.3015,4.60048,2470.45,2022-8-12T15:35:13Z
2022-08-12T13:36:27Z,42.805,6.029,13.3009,4.60046,2470.427,2022-8-12T15:38:16Z
2022-08-12T13:39:30Z,42.805,6.029,13.3009,4.60046,2470.39,2022-8-12T15:41:19Z
2022-08-12T13:42:34Z,42.805,6.029,13.3011,4.60049,2470.437,2022-8-12T15:44:23Z
2022-08-12T13:45:37Z,42.805,6.029,13.3013,4.60046,2470.413,2022-8-12T15:47:26Z
2022-08-12T13:48:40Z,42.805,6.029,13.3011,4.60049,2470.413,2022-8-12T15:50:29Z
2022-08-12T13:51:43Z,42.805,6.029,13.3011,4.60049,2470.413,2022-8-12T15:53:32Z
2022-08-12T13:54:46Z,42.805,6.029,13.3011,4.60047,2470.427,2022-8-12T15:56:35Z
2022-08-12T13:57:49Z,42.805,6.029,13.3009,4.60052,2470.45,2022-8-12T15:59:38Z
2022-08-12T14:00:52Z,42.805,6.029,13.3009,4.60049,2470.437,2022-8-12T16:02:41Z
2022-08-12T14:03:56Z,42.805,6.029,13.3009,4.60052,2470.437,2022-8-12T16:05:45Z
2022-08-12T14:06:59Z,42.805,6.029,13.3009,4.60050,2470.427,2022-8-12T16:08:48Z
2022-08-12T14:10:02Z,42.805,6.029,13.3010,4.60051,2470.45,2022-8-12T16:11:51Z
2022-08-12T14:13:05Z,42.805,6.029,13.3009,4.60048,2470.404,2022-8-12T16:14:54Z
2022-08-12T14:16:08Z,42.805,6.029,13.3011,4.60049,2470.45,2022-8-12T16:17:57Z
2022-08-12T14:19:11Z,42.805,6.029,13.3007,4.60047,2470.46,2022-8-12T16:21:00Z
2022-08-12T14:22:14Z,42.805,6.029,13.3013,4.60050,2470.437,2022-8-12T16:24:03Z
2022-08-12T14:25:17Z,42.805,6.029,13.3008,4.60047,2470.413,2022-8-12T16:27:06Z
2022-08-12T14:28:21Z,42.805,6.029,13.3008,4.60048,2470.45,2022-8-12T16:30:10Z
2022-08-12T14:31:24Z,42.805,6.029,13.3011,4.60049,2470.437,2022-8-12T16:33:13Z
2022-08-12T14:34:27Z,42.805,6.029,13.3008,4.60048,2470.413,2022-8-12T16:36:16Z
2022-08-12T14:37:30Z,42.805,6.029,13.3014,4.60046,2470.413,2022-8-12T16:39:19Z
2022-08-12T14:40:33Z,42.805,6.029,13.3011,4.60047,2470.437,2022-8-12T16:42:22Z
2022-08-12T14:43:36Z,42.805,6.029,13.3011,4.60049,2470.437,2022-8-12T16:45:25Z
2022-08-12T14:46:39Z,42.805,6.029,13.3011,4.60051,2470.427,2022-8-12T16:48:28Z
2022-08-12T14:49:42Z,42.805,6.029,13.3009,4.60049,2470.45,2022-8-12T16:51:31Z
2022-08-12T14:52:46Z,42.805,6.029,13.3009,4.60046,2470.45,2022-8-12T16:54:35Z
2022-08-12T14:55:49Z,42.805,6.029,13.3010,4.60048,2470.427,2022-8-12T16:57:38Z
2022-08-12T14:58:52Z,42.805,6.029,13.3009,4.60049,2470.413,2022-8-12T17:00:41Z
2022-08-12T15:01:55Z,42.805,6.029,13.3010,4.60047,2470.437,2022-8-12T17:03:44Z
2022-08-12T15:04:58Z,42.805,6.029,13.3014,4.60046,2470.46,2022-8-12T17:06:47Z
2022-08-12T15:08:01Z,42.805,6.029,13.3007,4.60049,2470.474,2022-8-12T17:09:50Z
2022-08-12T15:11:04Z,42.805,6.029,13.3009,4.60047,2470.46,2022-8-12T17:12:53Z
2022-08-12T15:14:07Z,42.805,6.029,13.3011,4.60046,2470.46,2022-8-12T17:15:56Z